CZ-3A R/B, 43492

Orbit data source: Space-Track

CZ-3A R/B, 43492 is space debris in HEO originally from a launch on Tue, 05 Jun 2018 UTC launched from the Xichang Space Center, China (XSC). Debris objects in space refer to the collection of defunct objects orbiting the Earth. Examples of debris include non-operational satellites, rocket bodies, and fragments generated from explosions, collisions, or faulty payload assembly.

Loading next visibility...
Identifier
43492, 2018-050B
Orbit
HEO
Country
Flag of CNCN / PRC
Related business
Manufacturer
CALT
Mission
Spacecraft
Bus & Motor
CZ-3A STAGE 3, Unknown motor
Mass
~2,800 kg wet, ~2,800 kg dry
Launch date (UTC)
2018-06-05 (7 years ago)
Launch vehicle
Unknown
Launch site
Xichang Space Center, China (XSC)
Object type
Payload
Rocket body
Debris
Shape & HBR
Cyl + 1 Nozzle, 6.2 m
Radar Cross Section
32.704 m², Large (>1 m²)

Expand to show TLE details & history
Last TLE update: 1 day ago

TLE from 1 day ago
0 CZ-3A R/B
1 43492U 18050B   25258.78001835  .00002468  00000-0  17351-2 0  9999
2 43492  23.9113 184.5778 7255740  60.0618 352.1544  2.28570777 59861
Epoch: 2025-09-15T18:43Z
TLE epoch observation values (Epoch: 2025-09-15T18:43:13.585Z)
Latitude
0.00027°
Longitude
-91.20436°
Altitude
2,094.678 km
Speed
8.815 km/s
True Right ascension
12h 18m 19s
True Declination
0° 00' 01"
Sunlit
Object was in daylight at epoch
Visualization orbit readout
Latitude
Unknown
Longitude
Unknown
Altitude
Unknown
Speed
Unknown
Apparent Right ascension
Unknown
Apparent Declination
Unknown
Sunlit
N/A
Visualization observer readout
Local Sidereal Time
19:09:23
Azimuth
Unknown
Elevation
Unknown
Doppler factor
Unknown
Orbital elements
Apogee altitude
35,636.105 km
Perigee altitude
303.582 km
Semi-major axis
24,347.98 km
Eccentricity
0.72557
Inclination
23.9113°
RAAN
184.5778°
Arg. of periapsis
60.0618°
True anomaly
299.47005°
Mean anomaly
352.1544°
Eccentric anomaly
333.79993°
Mean motion
0.57128 °/min
Orbital period
630.16 mins
BSTAR
0.0017351
Loading maneuver chart data...
Computing Atmospheric mass density...
Loading historical data...
Loading historical data...
Loading historical data...
Loading historical data...
Loading historical data...
Loading historical data...
Loading historical data...
Other satellites on launch #50 in the year 2018 (2018-06-05 UTC)

Documentation

Showing up to 5 results
|